Flag for U.S.A. Weather past 2 weeks in Lawrence, Kansas, U.S.A.

Now
72 °F

Sunny.


Feels Like: 77 °F
Forecast: 47 / 70 °F
Wind: 5 mph from Southeast

Location: Lawrence Municipal Airport

Current Time: Sep 16, 2014 at 4:46:51 PM

Latest Report: Sep 16, 2014 at 3:52 PM


Visibility: 10 mi

Pressure: 30.08 "Hg

Humidity: 46%

Dew point: 50 °F

Location of LawrenceLocation

Historic Weather in Lawrence — Graph

°F

Lawrence temperature yesterday

Maximum temperature yesterday: 71 °F (at 9:52 AM)
Minimum temperature yesterday: 48 °F (at 11:52 PM)
Average temperature yesterday: 64 °F

Past Weeks' High & Low Weather Summary

 TemperatureHumidityPressure
High93 °F (Sep 4, 1:52 PM)100% (Sep 13, 7:52 AM)30.44 "Hg (Sep 13, 7:52 AM)
Low35 °F (Sep 13, 5:52 AM)40% (Sep 7, 3:52 PM)29.52 "Hg (Sep 9, 11:52 PM)
Average66 °F75%30.05 "Hg
* Reported Sep 1 2:52 PM — Sep 16 2:52 PM, Lawrence, Weather by CustomWeather, © 2014

Note: Actual official high and low records may vary slightly from our data, if they occured in-between our weather recording intervals... More about our weather records

Advertising

Lawrence weather history for previous 24 hours

 ConditionsComfort  
Time TempWeatherWind HumidityBarometerVisibility
2:52 PM
Sep 16
71 °FSunny.6 mph49%30.11 "Hg10 mi
1:52 PM69 °FSunny.No wind51%30.14 "Hg10 mi
12:52 PM66 °FSunny.3 mph56%30.16 "Hg10 mi
11:52 AM65 °FSunny.7 mph59%30.20 "Hg10 mi
10:52 AM60 °FSunny.5 mph69%30.23 "Hg10 mi
9:52 AM58 °FSunny.7 mph78%30.24 "Hg10 mi
8:52 AM53 °FSunny.6 mph86%30.25 "Hg10 mi
7:52 AM47 °FFog.No wind93%30.25 "Hg6 mi
6:52 AM43 °FClear.No wind97%30.25 "Hg7 mi
5:52 AM44 °FClear.No wind93%30.24 "Hg9 mi
4:52 AM45 °FClear.No wind93%30.25 "Hg10 mi
3:52 AM49 °FClear.No wind90%30.25 "Hg10 mi
2:52 AM49 °FClear.5 mph90%30.26 "Hg10 mi
1:52 AM48 °FClear.3 mph93%30.25 "Hg10 mi
12:52 AM51 °FClear.3 mph89%30.25 "Hg10 mi
11:52 PM
Sep 15
48 °FClear.5 mph93%30.25 "Hg10 mi
10:52 PM51 °FClear.No wind89%30.24 "Hg10 mi
9:52 PM55 °FClear.3 mph80%30.23 "Hg10 mi
8:52 PM58 °FClear.5 mph78%30.21 "Hg10 mi
7:52 PM61 °FScattered clouds.7 mph75%30.19 "Hg10 mi
6:52 PM65 °FMostly cloudy.10 mph70%30.17 "Hg10 mi
5:52 PM69 °FMore clouds than sun.14 mph63%30.15 "Hg10 mi
4:52 PM69 °FMore clouds than sun.6 mph70%30.14 "Hg10 mi
4:02 PM69 °FOvercast.8 mph70%30.15 "Hg10 mi
Weather by CustomWeather, © 2014

See weather overviewHow to use our weather pages